Regional Weather Roundup
Issued by NWS

Home | Current Version | Previous Version | Text Only | Print | Product List | Glossary On
Versions: 1 2 3 4 5 6 7 8 9 10 11 12 13 14 15 16 17 18 19 20 21 22 23 24 25 26 27 28 29 30 31 32 33 34 35 36 37 38 39 40 41 42 43 44 45 46 47 48 49 50
581
ASUS44 KJAN 011910
RWRMS

MISSISSIPPI HOURLY WEATHER ROUNDUP
NATIONAL WEATHER SERVICE JACKSON MS
200 PM CDT FRI AUG 01 2014

NOTE: "FAIR: INDICATES FEW OR NO CLOUDS BELOW 12,000 FEET WITH NO
SIGNIFICANT WEATHER AND/OR OBSTRUCTIONS TO VISIBILITY.

MSZ001>002-007>008-010>013-018>021-025>028-034>036-012000-
NORTHWEST MISSISSIPPI

CITY           SKY/WX    TMP DP  RH WIND       PRES   REMARKS
CLARKSDALE     PTSUNNY   81  66  61 CALM      30.05S
CLEVELAND      CLOUDY    78  72  80 SE5       30.03F
GREENWOOD      LGT RAIN  78  68  71 S3        30.03F
GREENVILLE     CLOUDY    78  69  73 E7        30.03S
GRENADA        FAIR      81  61  50 CALM      30.04S
OLIVE BRANCH   PTSUNNY   82  66  57 NE9       30.05F
OXFORD         FAIR      82  57  42 NE7       30.06S
TUNICA         CLEAR     82  61  47 NE5       30.05S
$$

MSZ003>006-009-014>017-022>024-029>033-037>039-012000-
NORTHEAST MISSISSIPPI

CITY           SKY/WX    TMP DP  RH WIND       PRES   REMARKS
BELMONT        FAIR      82  67  59 CALM      30.05F
COLUMBUS AFB   MOSUNNY   86  58  39 VRB1      30.03S
CORINTH        FAIR      82  63  51 N5        30.04F
GOLDN TRIANGLE MOSUNNY   84  64  51 CALM      30.04S
STARKVILLE     MOCLDY    81  64  57 N3        30.03S
TUPELO         MOSUNNY   85  64  49 NE9       30.03F
$$

MSZ040-058-012000-
CENTRAL MISSISSIPPI

CITY           SKY/WX    TMP DP  RH WIND       PRES   REMARKS
JACKSON INTL   LGT RAIN  77  67  71 CALM      30.03F
JACKSON HAWKNS LGT RAIN  76  65  68 MISG      30.03F
MERIDIAN KEY   CLOUDY    83  65  54 SW8       30.02S
MERIDIAN NAS   CLOUDY    87  62  43 N5        30.02S
RAYMOND        MOCLDY    77  72  83 CALM      30.03F
VICKSBURG      CLOUDY    75  69  81 SE9       30.02S
$$

MSZ059>079-012000-
SOUTH MISSISSIPPI

CITY           SKY/WX    TMP DP  RH WIND       PRES   REMARKS
BROOKHAVEN     LGT RAIN  75  70  83 SE5       30.05F
COLUMBIA       DRIZZLE   75  72  88 CALM      30.02F
HATTIESBURG    CLOUDY    78  69  73 CALM      30.03F
MCCOMB         CLOUDY    75  69  81 VRB3      30.02F
NATCHEZ        CLOUDY    72  68  88 SE8       30.01F
PINE BELT      CLOUDY    75  70  83 N3        30.04F
$$

MSZ080>082-012000-
COASTAL MISSISSIPPI

CITY           SKY/WX    TMP DP  RH WIND       PRES   REMARKS
BAY ST LOUIS   SUNNY    N/A N/A N/A NE6       30.01S
BILOXI         CLOUDY    82  68  63 NE6       30.01F
PASCAGOULA     CLOUDY    85  66  53 N7        30.01F
GULFPORT       CLOUDY    86  66  51 NE5       30.00F
$$



USA.gov is the U.S. government's official web portal to all federal, state and local government web resources and services.